Terminal Aerodrome Forecast
Issued by NWS Wakefield, VA

Home | Current Version | Previous Version | Text Only | Print | Product List | Glossary On
Versions: 1 2 3 4 5 6 7 8 9 10 11 12
000
FTUS41 KAKQ 301125
TAFSBY
TAF
KSBY 301125Z 3012/3112 21003KT P6SM BKN250
     FM301600 19009KT P6SM BKN150
     FM302300 18004KT P6SM OVC120=

USA.gov is the U.S. government's official web portal to all federal, state and local government web resources and services.